[[{"header":{"parameterUnit":"m.s-1","parameterCategory":1,"la1":30.2991,"la2":30.254,"lo1":-89.0895,"lo2":-89.0444,"dx":0.0017,"dy":0.0017,"nx":28,"ny":28,"refTime":"2023-01-14T03:00:00:Z","depth":0,"parameterNumber":2,"parameterNumberName":"U-component_of_WINDS"},"data":[0,0,0,0,0,0,0,0,0,0,0,0,0,0,0,0,0,0,0,0,0,0,0,0,0,0,0,0,0,0,0,0,0,0,0,0,0,0,0,0,0,0,0,0,0,0,0,0,0,0,0,0,0,0,0,0,0,0,1.4392,1.4392,0,1.4422,1.4422,1.4422,1.4409,1.4408,1.4407,1.4406,1.4438,1.4439,1.444,0,0,0,0,0,0,0,0,0,0,0,0,0,1.4325,1.4326,1.4392,1.4392,1.4393,1.4422,1.4422,1.4422,1.4409,1.4408,1.4407,1.4406,1.4437,1.4439,1.4441,0,0,0,0,0,0,0,0,0,0,0,0,0,1.4354,1.4327,1.4392,1.4389,1.4389,1.4422,1.4422,1.4423,1.4409,1.4408,1.4407,1.4406,1.4436,1.4439,1.4441,1.4478,0,0,1.4448,1.4449,0,0,0,0,0,0,0,0,1.4353,1.4357,1.4389,1.439,1.439,1.441,1.441,1.4441,1.4409,1.4402,1.4406,1.4405,1.4429,1.4432,1.444,1.4479,1.448,1.4448,1.4449,1.445,1.4451,0,0,0,0,0,0,0,1.4351,1.4355,1.4404,1.439,1.439,1.4387,1.439,1.4416,1.4421,1.4402,1.4401,1.4405,1.4429,1.4438,1.4441,1.4481,1.4448,1.445,1.4451,1.4452,1.4553,1.4554,0,0,0,0,0,0,1.4349,1.4354,1.4403,1.4405,1.4368,1.4389,1.4393,1.4405,1.4421,1.4422,1.4406,1.4404,1.4435,1.4438,1.4442,1.4487,1.445,1.4453,1.4454,1.4552,1.4554,1.4555,0,0,0,0,0,0,1.4347,1.4353,1.4402,1.4379,1.4385,1.4392,1.4405,1.4406,1.4415,1.4424,1.4425,1.4414,1.4434,1.4439,1.4469,1.4488,1.4454,1.4456,1.455,1.4552,1.4554,1.4578,0,0,0,0,0,0,1.4345,1.4353,1.4366,1.4379,1.4386,1.4428,1.4407,1.4407,1.4419,1.4417,1.4432,1.4433,1.4433,1.4466,1.4472,1.4491,1.4457,1.4549,1.4551,1.4554,1.4575,1.458,1.4584,0,0,0,0,0,1.4343,1.4371,1.4367,1.4373,1.4403,1.4429,1.4433,1.4433,1.442,1.4434,1.444,1.4432,1.4485,1.4469,1.4475,1.4495,1.4548,1.4551,1.4553,1.4573,1.4579,1.4584,0,0,0,0,0,0,1.436,1.4373,1.4368,1.4401,1.4414,1.4427,1.4444,1.4439,1.4456,1.4453,1.4452,1.4456,1.4488,1.4495,1.4477,1.4533,1.4514,1.4519,1.4527,1.4533,1.4538,1.4536,1.4459,0,0,0,0,0,1.4367,1.4387,1.4397,1.4426,1.4432,1.4437,1.4448,1.4447,1.4461,1.4466,1.4474,1.4488,1.4508,1.4521,1.4539,1.4576,1.458,1.4593,1.4598,1.4601,1.4605,1.4627,1.4634,1.4565,1.4565,1.4564,0,0,1.4383,1.4393,1.4405,1.4429,1.4439,1.446,1.4442,1.4464,1.448,1.4469,1.4499,1.4506,1.4521,1.4555,1.4571,1.4562,1.4625,1.4605,1.4608,1.461,1.4631,1.4637,1.4643,1.4567,1.4566,1.4566,0,0,1.4423,1.4431,1.4457,1.4467,1.4483,1.4486,1.4492,1.4506,1.451,1.454,1.4533,1.4552,1.4585,1.4597,1.4607,1.4653,1.4647,1.4659,1.4683,1.4705,1.471,1.4715,1.4733,1.4739,1.4663,1.4663,1.4663,0,1.4441,1.4471,1.4471,1.4494,1.4506,1.4497,1.4524,1.4534,1.4555,1.4563,1.4553,1.4596,1.4606,1.4643,1.4655,1.4663,1.4671,1.4658,1.4709,1.4714,1.4719,1.4736,1.4742,1.4665,1.4664,1.4664,1.4664,0,1.4493,1.4515,1.4534,1.4554,1.4568,1.4593,1.4597,1.4611,1.4609,1.4614,1.4645,1.4656,1.4678,1.4687,1.4685,1.4725,1.4719,1.4709,1.4691,1.4727,1.4743,1.4749,1.4667,1.4666,1.4666,1.4665,0,0,1.4544,1.4565,1.4572,1.4582,1.4599,1.4616,1.4641,1.4662,1.4675,1.469,1.4712,1.4741,1.4732,1.4744,1.4744,1.4762,1.48,1.475,1.475,1.476,1.4847,1.4855,1.4862,1.4796,1.4797,1.4798,1.4846,0,1.4586,1.463,1.4631,1.4671,1.4692,1.4685,1.4707,1.4721,1.4726,1.4745,1.4751,1.4773,1.4759,1.4766,1.4784,1.4791,1.4817,1.4788,1.4817,1.4818,1.4815,1.487,1.4879,1.4923,1.4852,1.4853,1.4854,0,1.4641,1.4658,1.4701,1.4716,1.4725,1.4745,1.4765,1.4783,1.4799,1.4801,1.4815,1.4813,1.4839,1.482,1.4858,1.4838,1.485,1.4855,1.4857,1.4861,1.4839,1.4876,1.4937,1.4945,1.4863,1.4863,1.4862,0,1.4675,1.4709,1.4739,1.4748,1.4766,1.4781,1.4789,1.4803,1.4817,1.4835,1.4843,1.4864,1.4876,1.4892,1.4896,1.4881,1.4934,1.4915,1.4938,1.4938,1.495,1.495,1.5015,1.4956,1.4956,1.4956,1.4956,0,1.4723,1.475,1.4755,1.4774,1.4805,1.4806,1.4836,1.4843,1.4856,1.4877,1.4872,1.4892,1.4895,1.4915,1.4918,1.495,1.4955,1.4959,1.4959,1.496,1.496,1.4968,1.4966,1.4958,1.4958,1.4957,1.4957,0,1.4767,1.4771,1.4804,1.4819,1.4824,1.4846,1.4859,1.4877,1.4883,1.4909,1.4916,1.4924,1.4949,1.4953,1.4982,1.4984,1.5022,1.5019,1.5017,1.5017,1.5041,1.504,1.5116,1.5126,1.5059,1.506,1.5061,0,1.4797,1.4818,1.4835,1.4849,1.4858,1.488,1.4894,1.4896,1.491,1.493,1.4947,1.4971,1.499,1.503,1.5039,1.5061,1.506,1.5085,1.5063,1.5063,1.5062,1.5061,1.5064,1.5089,1.509,1.509,1.5091,0,1.4851,1.4853,1.4873,1.4894,1.4911,1.4927,1.4943,1.4955,1.4959,1.4976,1.5001,1.5016,1.5046,1.5071,1.5093,1.5103,1.5098,1.5098,1.5105,1.5106,1.5104,1.5107,1.503,1.5096,1.5096,1.5095,1.5095,1.5095,1.489,1.4909,1.4924,1.4947,1.496,1.4975,1.4994,1.5002,1.5022,1.5047,1.5047,1.5075,1.5091,1.5121,1.5132,1.5155,1.5147,1.5157,1.5159,1.5162,1.5165,1.51,1.5159,1.5159,1.5158,1.5158,1.5158,0,1.4945,1.4955,1.4976,1.4999,1.5017,1.5011,1.5029,1.5045,1.5069,1.5085,1.5104,1.5134,1.5158,1.5169,1.5193,1.5209,1.5208,1.5216,1.5215,1.5218,1.517,1.5162,1.5216,1.5216,1.5216,1.5216,1.5216,1.5216,1.4976,1.5008,1.5012,1.505,1.506,1.5087,1.5098,1.5113,1.5125,1.5159,1.5179,1.5186,1.5201,1.5226,1.5248,1.5251,1.526,1.5269,1.5271,1.5227,1.5221,1.5215,1.5208,1.5271,1.5271,1.5318,1.5318,1.5318]},{"header":{"parameterUnit":"m.s-1","parameterCategory":1,"la1":30.2991,"la2":30.254,"lo1":-89.0895,"lo2":-89.0444,"dx":0.0017,"dy":0.0017,"nx":28,"ny":28,"refTime":"2023-01-14T03:00:00:Z","depth":0,"parameterNumber":3,"parameterNumberName":"V-component_of_WINDS"},"data":[0,0,0,0,0,0,0,0,0,0,0,0,0,0,0,0,0,0,0,0,0,0,0,0,0,0,0,0,0,0,0,0,0,0,0,0,0,0,0,0,0,0,0,0,0,0,0,0,0,0,0,0,0,0,0,0,0,0,-2.7109,-2.711,0,-2.7173,-2.7173,-2.7174,-2.7197,-2.7197,-2.7196,-2.7196,-2.7259,-2.7261,-2.7263,0,0,0,0,0,0,0,0,0,0,0,0,0,-2.7007,-2.7009,-2.7109,-2.711,-2.711,-2.7172,-2.7173,-2.7174,-2.7197,-2.7197,-2.7196,-2.7196,-2.7259,-2.7261,-2.7263,0,0,0,0,0,0,0,0,0,0,0,0,0,-2.7059,-2.7009,-2.7109,-2.7129,-2.7132,-2.7172,-2.7173,-2.7174,-2.7197,-2.7197,-2.7196,-2.7196,-2.7258,-2.7261,-2.7263,-2.7287,0,0,-2.7272,-2.7273,0,0,0,0,0,0,0,0,-2.7056,-2.7063,-2.7126,-2.7128,-2.7131,-2.7177,-2.716,-2.7212,-2.7197,-2.7172,-2.7196,-2.7196,-2.7232,-2.7237,-2.7249,-2.729,-2.7293,-2.7272,-2.7274,-2.7275,-2.7276,0,0,0,0,0,0,0,-2.7052,-2.706,-2.7134,-2.7126,-2.713,-2.7135,-2.7142,-2.717,-2.7203,-2.7174,-2.7176,-2.7184,-2.7233,-2.7246,-2.7251,-2.7294,-2.7272,-2.7275,-2.7276,-2.7277,-2.736,-2.736,0,0,0,0,0,0,-2.7045,-2.7057,-2.7132,-2.7136,-2.7092,-2.7138,-2.7145,-2.7162,-2.7203,-2.7209,-2.7184,-2.7184,-2.7242,-2.7248,-2.7253,-2.7286,-2.7275,-2.7278,-2.7279,-2.7359,-2.736,-2.7361,0,0,0,0,0,0,-2.7043,-2.7052,-2.7129,-2.7097,-2.7107,-2.714,-2.7158,-2.7164,-2.7177,-2.721,-2.7216,-2.7191,-2.7242,-2.7249,-2.7279,-2.7288,-2.7279,-2.7281,-2.7359,-2.736,-2.736,-2.7349,0,0,0,0,0,0,-2.704,-2.7051,-2.706,-2.7097,-2.7109,-2.7154,-2.7159,-2.7165,-2.7182,-2.7183,-2.7219,-2.7224,-2.7242,-2.7275,-2.7282,-2.7292,-2.7284,-2.7358,-2.7359,-2.736,-2.7349,-2.7349,-2.735,0,0,0,0,0,-2.7036,-2.7053,-2.706,-2.7069,-2.7121,-2.7155,-2.7162,-2.7183,-2.7183,-2.7192,-2.7214,-2.7223,-2.7286,-2.7278,-2.7286,-2.7297,-2.7358,-2.7359,-2.736,-2.7349,-2.7349,-2.735,0,0,0,0,0,0,-2.7015,-2.7058,-2.7067,-2.7096,-2.7122,-2.7159,-2.7171,-2.7182,-2.7208,-2.7208,-2.7232,-2.724,-2.7269,-2.7286,-2.7276,-2.7323,-2.7322,-2.7325,-2.7311,-2.7312,-2.7312,-2.7308,-2.7286,0,0,0,0,0,-2.7014,-2.7038,-2.7075,-2.7097,-2.711,-2.7138,-2.7154,-2.7168,-2.7195,-2.7206,-2.723,-2.7255,-2.7281,-2.7297,-2.7323,-2.7352,-2.736,-2.7363,-2.7364,-2.7364,-2.7366,-2.7385,-2.7387,-2.7364,-2.7364,-2.7364,0,0,-2.7012,-2.7038,-2.7052,-2.7094,-2.7115,-2.714,-2.7147,-2.7172,-2.7191,-2.7209,-2.724,-2.7258,-2.7289,-2.7319,-2.7333,-2.7334,-2.7374,-2.7365,-2.7365,-2.7367,-2.7386,-2.7388,-2.739,-2.7365,-2.7365,-2.7365,0,0,-2.702,-2.7042,-2.7065,-2.7087,-2.712,-2.714,-2.7145,-2.7181,-2.7194,-2.7226,-2.7241,-2.7263,-2.7306,-2.7328,-2.7345,-2.7365,-2.7375,-2.7372,-2.7375,-2.7393,-2.7395,-2.7396,-2.7405,-2.7407,-2.7374,-2.7374,-2.7374,0,-2.7013,-2.7051,-2.7074,-2.71,-2.7118,-2.7138,-2.7161,-2.7181,-2.7221,-2.7233,-2.7233,-2.729,-2.7312,-2.7349,-2.7354,-2.7366,-2.7374,-2.7368,-2.7393,-2.7395,-2.7396,-2.7405,-2.7408,-2.7374,-2.7374,-2.7374,-2.7374,0,-2.7041,-2.7067,-2.7081,-2.7121,-2.7141,-2.7165,-2.7193,-2.721,-2.7223,-2.7243,-2.7276,-2.7303,-2.7335,-2.7345,-2.7357,-2.7384,-2.7384,-2.7388,-2.7388,-2.7398,-2.7406,-2.7409,-2.7373,-2.7374,-2.7374,-2.7374,0,0,-2.7036,-2.709,-2.7095,-2.7114,-2.7154,-2.7175,-2.72,-2.7233,-2.7249,-2.7276,-2.7298,-2.7336,-2.7341,-2.736,-2.7375,-2.7391,-2.7407,-2.7394,-2.7395,-2.7397,-2.7441,-2.7437,-2.7441,-2.7414,-2.7415,-2.7416,-2.7438,0,-2.705,-2.7098,-2.7121,-2.7158,-2.7184,-2.7204,-2.7227,-2.7254,-2.7273,-2.7298,-2.7319,-2.7346,-2.735,-2.7363,-2.7379,-2.7402,-2.7417,-2.74,-2.7436,-2.7437,-2.7428,-2.7445,-2.7441,-2.7461,-2.7442,-2.7442,-2.7443,0,-2.7073,-2.7102,-2.7142,-2.7181,-2.7193,-2.7213,-2.7246,-2.7269,-2.7301,-2.7314,-2.7337,-2.7352,-2.7381,-2.7379,-2.7419,-2.7408,-2.7424,-2.7438,-2.7439,-2.7443,-2.7441,-2.745,-2.7468,-2.7471,-2.7448,-2.7447,-2.7447,0,-2.7067,-2.7116,-2.7147,-2.7163,-2.7208,-2.7222,-2.7242,-2.7273,-2.7292,-2.7322,-2.7335,-2.7366,-2.7383,-2.7408,-2.7432,-2.7428,-2.747,-2.747,-2.7482,-2.7482,-2.749,-2.7489,-2.7511,-2.75,-2.7499,-2.7499,-2.7499,0,-2.708,-2.7104,-2.7145,-2.7164,-2.7193,-2.722,-2.7247,-2.7268,-2.7296,-2.732,-2.7339,-2.7361,-2.7391,-2.7417,-2.7436,-2.7468,-2.7475,-2.7487,-2.7492,-2.7486,-2.7484,-2.7497,-2.7496,-2.75,-2.75,-2.75,-2.75,0,-2.7078,-2.7106,-2.7142,-2.7183,-2.7194,-2.7213,-2.7249,-2.7269,-2.729,-2.7321,-2.7329,-2.7363,-2.7395,-2.7422,-2.7463,-2.7476,-2.7509,-2.7514,-2.7498,-2.7501,-2.7513,-2.7512,-2.7544,-2.755,-2.7533,-2.7533,-2.7533,0,-2.7085,-2.7104,-2.7149,-2.7167,-2.7187,-2.7215,-2.7236,-2.7264,-2.7285,-2.7324,-2.7339,-2.7373,-2.7401,-2.7451,-2.7479,-2.7512,-2.7518,-2.7528,-2.7523,-2.7517,-2.752,-2.7519,-2.7522,-2.7528,-2.7528,-2.7528,-2.7528,0,-2.7095,-2.7109,-2.7138,-2.7173,-2.7197,-2.7225,-2.7254,-2.7268,-2.7302,-2.7324,-2.7358,-2.738,-2.7424,-2.7457,-2.7493,-2.7514,-2.7527,-2.7529,-2.7534,-2.7528,-2.7519,-2.7526,-2.75,-2.7528,-2.7528,-2.7528,-2.7528,-2.7528,-2.7098,-2.7117,-2.7153,-2.7185,-2.721,-2.7238,-2.7259,-2.7285,-2.7314,-2.7352,-2.7367,-2.7402,-2.7435,-2.7485,-2.7506,-2.7534,-2.7536,-2.7542,-2.7544,-2.7545,-2.7545,-2.7515,-2.754,-2.754,-2.754,-2.7541,-2.7541,0,-2.711,-2.7134,-2.7164,-2.7205,-2.7231,-2.7243,-2.7276,-2.7297,-2.7328,-2.7359,-2.7387,-2.7427,-2.7461,-2.7493,-2.7528,-2.7544,-2.7551,-2.7553,-2.7552,-2.7557,-2.7541,-2.7534,-2.7547,-2.7547,-2.7547,-2.7547,-2.7547,-2.7547,-2.7119,-2.7153,-2.7171,-2.7219,-2.7243,-2.7278,-2.7297,-2.7323,-2.7347,-2.7392,-2.742,-2.7441,-2.7473,-2.7511,-2.7543,-2.7551,-2.7564,-2.7564,-2.7574,-2.7558,-2.7558,-2.7557,-2.755,-2.7566,-2.7566,-2.7587,-2.7588,-2.7588]}]]